Location: Piotrkow Trybunalski
(51.4000°N, 19.6830°E)
Time: 11:09:17
(UTC+01:00)

Transit 2A Rocket - Visible Passes

Search period start: 31 January 2023 00:00
Search period end: 10 February 2023 00:00
Orbit: 585 x 915 km, 66.7° (Epoch: 30 January)

Date Brightness Start Highest point End Pass type
(mag) Time Alt. Az. Time Alt. Az. Time Alt. Az.
31 Jan 7.2 03:45:46 18° N 03:45:46 18° N 03:48:42 10° NNE visible
31 Jan 7.1 05:25:38 11° NNW 05:29:25 20° NNE 05:33:44 10° ENE visible
01 Feb 7.6 03:03:46 16° NNE 03:03:46 16° NNE 03:05:24 10° NNE visible
01 Feb 7.1 04:43:37 15° NNW 04:45:47 18° N 04:49:46 10° NE visible
01 Feb 6.7 06:24:57 10° NNW 06:30:10 32° NNE 06:35:34 10° E visible
02 Feb 8.0 02:21:46 12° NNE 02:21:46 12° NNE 02:22:13 10° NNE visible
02 Feb 7.2 04:01:37 17° N 04:02:06 17° N 04:05:58 10° NE visible
02 Feb 7.0 05:41:53 10° NNW 05:46:41 26° NNE 05:51:40 10° E visible
03 Feb 7.4 03:19:37 17° N 03:19:37 17° N 03:22:22 10° NE visible
03 Feb 7.1 04:59:28 13° NNW 05:03:08 22° NNE 05:07:41 10° ENE visible
03 Feb 6.1 06:41:20 10° NNW 06:47:05 49° NE 06:53:01 10° ESE visible
04 Feb 7.8 02:37:36 14° NNE 02:37:36 14° NNE 02:38:57 10° NNE visible
04 Feb 7.2 04:17:28 16° NNW 04:19:30 19° NNE 04:23:41 10° ENE visible
04 Feb 6.5 05:58:18 10° NNW 06:03:45 37° NE 06:09:23 10° ESE visible
05 Feb 8.1 01:55:36 10° NNE 01:55:36 10° NNE 01:55:41 10° NNE visible
05 Feb 7.3 03:35:28 18° N 03:35:50 18° N 03:39:47 10° NE visible
05 Feb 6.9 05:15:19 10° NNW 05:20:19 29° NNE 05:25:34 10° E visible
06 Feb 7.5 02:53:28 17° NNE 02:53:28 17° NNE 02:56:03 10° NE visible
06 Feb 7.1 04:33:20 15° NNW 04:36:48 24° NNE 04:41:38 10° ENE visible
06 Feb 5.9 06:14:40 10° NW 06:20:35 60° NE 06:26:38 10° SE visible
07 Feb 7.9 02:11:29 13° NNE 02:11:29 13° NNE 02:12:32 10° NE visible
07 Feb 7.2 03:51:21 18° N 03:53:12 21° NNE 03:57:38 10° ENE visible
07 Feb 6.3 05:31:37 10° NNW 05:37:18 44° NE 05:43:07 10° ESE visible
08 Feb 7.4 03:09:22 19° N 03:09:33 19° N 03:13:40 10° NE visible
08 Feb 6.7 04:49:14 13° NNW 04:53:55 33° NNE 04:59:24 10° E visible
08 Feb 5.4 06:31:06 10° NW 06:37:08 80° SW 06:43:15 10° SSE visible
09 Feb 7.7 02:27:25 16° NNE 02:27:25 16° NNE 02:29:50 10° NE visible
09 Feb 7.0 04:07:17 18° NNW 04:10:26 27° NNE 04:15:32 10° E visible
09 Feb 5.6 05:48:01 10° NW 05:54:01 73° NE 06:00:09 10° SE visible
